RH
64 65 65 67 69 71 71 72 77 79 82 84 82 81 78 75 73 77 83 84 83 81 80 79 77 76 78 51 29 36 61 67 54 28 21 22 24 26 26 22 20 23 18 18 17 18 22
62 60 66 67 70 69 68 70 74 79 81 82 83 85 81 80 75 76 82 82 85 85 83 80 77 75 82 36 20 39 40 41 29 23 22 20 19 22 23 22 21 20 19 18 21 20 22
67 66 68 71 72 71 71 73 74 75 78 78 81 83 84 79 82 81 83 84 83 82 80 78 76 72 77 32 28 39 42 33 35 26 24 22 19 21 23 23 21 22 24 22 20 18 20
64 66 67 69 73 73 72 74 76 74 75 75 74 80 85 84 86 87 87 86 84 80 78 75 76 76 75 46 46 51 45 42 38 34 32 28 23 25 24 24 24 25 27 26 19 25 34
68 65 68 68 69 70 72 73 76 76 76 80 81 84 85 85 84 84 85 87 80 78 78 79 83 84 58 43 48 38 42 33 36 33 31 25 28 31 27 28 28 32 23 28 21 21 35
68 67 66 69 69 68 68 70 74 78 82 84 84 84 84 86 86 87 89 77 74 76 72 69 71 74 36 17 27 37 46 38 30 37 37 36 37 39 36 30 32 28 32 30 25 25 28
62 62 60 64 67 67 65 66 70 78 82 80 81 83 85 86 85 88 81 73 65 64 67 71 66 42 36 44 38 37 40 38 32 33 41 46 41 48 40 34 25 26 29 25 26 26 26
70 70 69 60 64 65 65 66 69 78 80 80 82 84 85 86 86 88 80 76 71 72 89 62 66 60 50 51 57 37 32 37 38 32 39 42 49 39 36 35 32 30 31 29 26 26 28
69 68 67 65 60 62 65 64 69 78 80 83 85 84 86 87 87 80 83 76 57 59 96 64 57 60 46 41 48 37 34 37 35 39 39 39 37 35 36 38 37 35 34 31 26 28 26
67 70 68 64 66 64 62 63 71 75 78 83 86 88 88 88 72 79 86 70 58 67 90 50 64 58 39 40 52 27 21 24 39 38 40 36 29 37 34 34 35 41 31 30 30 30 25
68 71 71 70 62 69 69 67 73 74 78 83 87 88 88 84 78 76 63 70 60 85 40 22 45 27 34 26 24 37 25 26 21 38 40 40 40 38 40 34 30 30 32 31 29 31 34
67 68 72 69 70 71 68 72 70 72 77 81 86 87 87 89 93 78 80 80 82 90 66 31 36 43 41 37 34 38 36 30 24 32 40 34 32 31 28 31 28 29 33 36 42 41 52
66 68 70 69 72 70 65 68 71 72 79 82 87 87 87 79 80 76 78 82 88 86 39 35 35 44 46 44 38 38 46 41 34 33 44 38 33 32 31 34 34 31 38 46 58 59 49
68 67 71 72 72 69 60 68 73 77 81 84 87 90 87 80 75 75 83 89 87 51 54 39 40 42 44 33 33 34 42 41 34 34 24 35 45 32 32 35 39 41 39 50 46 58 44
66 66 68 74 71 67 67 70 70 77 80 85 87 97 96 92 80 86 91 98 60 55 51 59 48 46 42 37 42 35 38 39 30 30 30 37 32 27 32 31 31 44 48 36 47 58 59
64 64 67 71 72 71 71 70 70 72 76 83 97 97 92 89 82 94 98 75 66 55 56 58 65 54 55 46 42 45 47 54 56 34 35 39 43 33 29 29 30 34 34 48 51 53 51
66 66 67 68 71 73 72 70 70 72 75 84 98 97 89 84 92 100 96 78 53 38 44 62 64 61 56 53 45 47 53 49 54 57 37 36 42 41 38 35 35 38 40 43 40 50 46
68 68 68 68 67 73 72 69 70 73 78 87 96 100 96 88 100 100 94 73 58 46 48 55 57 60 57 52 45 42 52 48 36 45 61 58 50 49 35 32 30 33 38 40 53 50 63
65 67 66 67 67 70 74 71 71 76 76 97 98 99 98 87 97 97 97 79 58 54 58 57 58 61 56 54 50 48 48 44 44 37 36 53 65 58 47 39 41 44 37 36 47 50 50
69 70 69 66 68 70 74 72 73 75 74 95 100 100 99 99 88 79 94 78 71 57 55 60 63 60 61 60 51 54 51 43 48 40 60 63 68 88 68 73 67 73 60 55 48 58 47
74 74 74 76 75 73 73 72 75 76 79 95 100 99 96 99 98 87 72 68 70 68 58 58 62 62 63 66 64 56 46 45 43 51 61 56 63 60 66 47 50 57 61 56 58 52 53
79 79 79 77 77 77 77 76 76 78 79 98 100 100 98 99 80 98 91 92 72 65 65 63 70 65 64 64 55 49 52 50 49 50 53 56 76 77 78 54 45 60 56 42 51 49 43
84 85 84 82 81 79 77 77 78 78 82 98 96 95 99 98 84 99 94 77 73 61 58 50 54 58 63 65 59 58 55 56 54 58 60 62 85 88 77 69 68 66 48 48 40 41 43
87 86 86 86 85 84 82 80 79 79 82 93 98 93 98 97 96 94 82 70 66 63 63 54 54 64 59 55 60 60 68 66 65 63 60 64 68 94 90 87 83 40 41 45 47 43 37
83 83 85 86 86 86 86 86 82 81 81 95 94 95 96 96 94 90 74 78 63 62 62 57 57 50 55 57 96 82 72 80 74 68 67 63 69 99 94 85 58 38 30 37 48 39 60
88 88 88 86 86 86 85 90 86 84 83 93 96 93 96 100 93 71 77 71 78 84 82 65 62 60 72 99 94 85 82 66 67 70 70 74 75 98 98 90 83 45 40 51 40 58 60
91 90 90 90 88 85 84 88 90 87 82 91 97 92 97 99 82 74 81 88 66 74 87 77 81 95 80 99 92 84 74 58 62 78 80 87 99 96 89 92 71 56 48 56 61 53 54
84 85 86 86 89 87 84 84 89 86 89 94 96 92 96 100 95 71 70 85 78 80 88 81 93 94 99 96 90 85 87 69 61 60 78 76 78 84 85 89 83 50 58 58 50 59 57
90 87 86 84 88 89 86 82 87 91 87 89 98 94 91 97 98 92 80 73 57 61 71 81 72 79 79 84 84 77 85 86 68 68 73 78 75 76 72 66 55 56 53 45 55 57 53
Wind_Speed
11 12 12 11 10 11 11 10 9 9 10 10 11 13 14 14 14 13 14 14 15 16 16 17 15 16 7 4 10 4 6 3 3 3 3 5 6 6 6 5 5 6 6 6 9 7 6
12 13 12 11 11 11 11 11 11 10 10 10 10 11 13 14 14 15 15 15 15 15 15 17 14 10 1 6 1 3 7 2 1 3 4 5 6 5 4 4 8 4 7 7 7 10 5
13 13 12 11 11 11 11 10 11 11 11 11 11 11 12 14 14 16 17 19 18 17 18 17 12 4 5 16 2 2 6 2 1 2 3 4 3 5 6 3 5 2 6 8 8 5 4
11 13 14 12 12 10 9 12 12 13 12 12 13 11 11 12 12 14 16 17 23 23 20 17 12 5 10 7 4 9 4 7 9 7 4 3 3 3 2 1 2 3 2 5 1 4 1
12 11 14 14 13 12 11 11 13 13 13 13 12 12 11 11 13 14 16 22 27 19 11 7 6 6 11 5 4 9 12 8 5 6 6 3 3 3 3 4 3 2 7 6 6 3 3
14 13 14 13 13 13 15 14 14 13 13 13 14 13 12 12 13 14 17 24 20 3 7 7 4 3 8 4 2 2 6 5 3 10 4 5 2 4 3 10 12 8 6 6 8 2 1
18 17 12 13 14 15 13 15 14 14 13 12 15 13 13 12 12 12 12 6 5 2 3 8 5 6 6 6 4 3 5 5 5 5 10 6 7 14 20 15 5 7 6 7 4 4 2
16 15 15 12 16 15 15 15 14 13 13 14 13 12 13 12 10 10 4 3 3 3 14 16 21 18 24 5 4 4 6 5 5 8 7 5 14 16 10 10 13 7 7 10 12 4 8
17 15 16 14 15 16 16 15 16 14 13 14 13 12 12 10 8 4 2 3 7 7 7 11 8 11 12 16 13 14 5 4 6 9 16 17 6 12 13 10 14 15 18 14 13 6 4
18 17 17 15 15 16 14 15 16 15 16 14 13 10 10 8 3 2 3 4 8 4 5 8 4 8 6 8 10 22 15 11 6 13 10 13 13 9 11 15 14 14 10 13 13 6 7
18 16 17 14 14 16 11 14 14 16 16 15 12 11 10 2 1 2 2 7 9 2 7 2 3 1 5 10 3 5 17 8 18 8 7 9 9 20 7 13 14 12 8 12 11 9 6
19 18 17 15 15 14 13 12 14 16 16 15 12 12 9 1 1 5 5 7 1 2 10 6 3 2 4 9 4 4 10 3 7 6 2 7 2 9 15 6 18 5 4 2 2 3 7
19 20 19 17 17 15 12 12 14 16 16 15 13 13 6 4 2 1 1 2 1 6 6 6 4 4 4 4 5 4 6 13 7 11 16 9 7 3 4 12 6 6 4 3 3 5 7
19 21 20 21 16 14 15 14 13 14 15 15 13 12 4 4 5 3 3 1 9 4 6 6 5 11 5 1 4 4 7 9 8 2 7 13 8 15 9 7 8 13 13 5 7 6 2
22 20 21 19 18 15 14 15 13 14 14 14 13 2 3 5 7 3 3 4 4 4 3 9 11 4 5 5 3 2 4 5 4 10 5 8 9 5 7 7 11 6 11 11 1 1 2
23 23 22 20 19 17 16 14 14 15 14 13 2 3 5 11 10 4 3 8 6 3 5 4 5 6 6 9 6 4 2 8 6 3 2 2 2 5 9 5 6 8 10 6 3 6 9
24 23 22 21 19 18 14 14 14 15 14 12 3 5 3 14 7 4 6 7 7 14 9 4 5 5 5 5 6 6 6 4 9 7 5 1 1 1 5 5 11 7 7 2 5 4 6
25 22 22 23 21 19 18 16 16 16 13 8 3 5 6 11 7 3 4 7 3 8 2 5 2 3 3 5 5 6 4 3 11 12 5 5 2 3 5 2 3 2 7 10 7 5 2
25 24 24 24 22 20 21 18 17 16 14 2 4 2 6 9 10 7 6 5 4 4 3 2 1 1 2 3 4 3 4 3 8 12 9 6 2 2 2 2 5 3 2 4 3 2 15
26 26 26 25 24 23 23 21 19 18 16 6 2 3 3 6 3 15 9 9 7 5 13 2 1 1 1 3 2 4 5 5 10 9 9 1 3 4 0 2 3 5 11 10 6 5 7
28 27 26 25 25 25 24 23 20 19 17 7 4 4 4 5 8 10 14 12 15 8 7 11 6 8 4 2 3 4 4 5 4 6 6 2 5 5 6 11 7 8 7 10 10 10 11
30 29 29 28 27 26 25 24 22 21 19 8 4 4 5 2 6 15 15 13 17 15 8 6 7 6 10 8 9 9 4 2 3 6 7 7 2 5 5 10 11 8 10 16 15 10 13
28 28 29 30 30 29 29 27 24 24 21 6 5 4 4 3 9 9 10 15 17 14 8 13 10 12 12 9 7 9 10 10 9 7 5 5 3 2 3 5 7 7 9 8 2 5 5
26 27 27 27 29 30 30 29 28 28 26 8 3 4 6 8 12 13 15 17 18 19 14 10 13 9 2 5 7 4 7 12 11 11 10 5 3 3 1 2 8 3 4 5 6 9 9
26 27 27 28 28 28 30 31 31 31 31 11 7 6 6 8 7 11 16 19 15 15 18 16 6 1 3 5 3 4 1 2 8 14 15 14 5 3 3 6 8 9 7 4 6 7 8
26 27 28 28 27 27 26 31 31 32 31 15 11 7 5 4 11 12 15 18 13 10 8 15 3 2 4 1 2 3 2 2 2 2 7 13 10 3 3 4 6 3 2 2 1 7 5
25 26 26 27 27 26 25 27 30 32 33 15 5 15 6 6 6 13 13 11 10 11 4 5 7 3 8 4 4 5 4 2 3 2 5 6 3 9 4 5 7 9 7 3 2 5 6
19 19 20 22 26 26 25 25 28 30 29 18 10 17 9 3 3 12 12 10 9 12 7 7 5 5 4 7 4 3 3 4 3 3 4 8 7 5 6 4 9 1 2 1 6 4 7
15 17 18 18 20 25 25 25 23 29 29 27 6 11 9 4 1 2 4 5 22 24 11 10 6 7 6 4 4 3 4 1 5 3 2 4 7 5 8 7 2 3 4 8 6 12 13
Wind_Direction
318 317 319 315 322 323 323 334 338 339 327 321 323 320 325 324 329 325 317 314 308 307 308 309 318 335 344 349 253 348 37 55 117 208 199 169 161 149 187 186 165 230 256 203 241 244 246
311 304 307 311 301 303 310 316 318 320 315 317 317 315 318 318 325 324 317 316 312 305 300 298 308 328 297 277 213 116 28 26 206 227 207 175 196 208 173 190 201 224 240 260 273 261 229
304 308 305 305 319 328 326 311 306 301 298 303 305 311 312 317 318 316 317 317 312 299 289 286 288 281 240 239 176 317 340 263 221 228 228 228 196 177 152 175 216 266 277 292 247 251 236
286 303 309 313 314 318 319 319 310 297 298 303 306 305 305 312 315 310 312 310 300 293 282 273 261 224 249 248 226 270 213 263 240 245 249 275 175 138 216 157 69 233 196 267 317 166 121
290 286 298 297 303 313 309 314 312 314 307 302 296 301 304 313 313 314 318 313 302 303 297 192 162 208 260 276 213 248 193 224 173 177 206 306 176 167 135 197 254 223 254 235 300 214 138
291 278 281 291 300 302 305 305 304 308 312 314 304 299 304 307 315 323 327 309 300 52 56 130 173 255 249 233 221 157 172 219 163 133 133 186 135 168 168 179 217 207 230 230 244 141 80
289 284 271 294 300 294 295 297 301 308 310 318 315 313 304 304 319 336 334 330 353 356 359 241 219 263 309 333 305 182 166 162 137 151 178 191 187 202 204 199 186 201 227 237 237 210 252
285 288 286 279 286 291 292 293 298 306 313 319 312 315 307 303 321 333 335 12 55 279 299 254 246 255 261 290 313 248 167 177 170 190 149 154 218 219 171 192 215 214 224 241 288 272 226
286 288 290 283 282 286 285 299 300 306 311 313 309 314 309 311 335 16 319 296 343 333 265 281 220 239 238 194 228 237 166 179 193 186 190 209 196 189 184 191 209 229 232 243 255 333 249
279 273 276 277 286 287 286 296 299 306 306 306 300 312 306 316 16 299 298 313 326 304 300 276 235 262 202 150 231 231 203 207 212 202 185 221 221 179 200 202 198 233 215 236 255 274 274
280 278 272 272 269 272 287 289 296 301 303 308 296 302 298 237 211 328 292 329 327 253 312 91 182 163 158 179 330 202 197 206 217 187 162 207 201 211 193 214 182 235 172 207 237 246 282
284 283 274 272 271 268 274 281 294 298 301 305 299 296 291 3 172 248 318 325 321 207 252 321 143 125 158 229 285 82 174 260 212 195 26 204 190 191 214 184 182 203 128 107 95 200 243
279 277 275 267 271 270 271 283 287 292 295 301 296 290 277 163 197 103 352 0 224 227 331 319 353 164 232 256 215 178 150 185 181 182 202 211 212 193 156 190 190 207 142 242 227 212 242
272 273 275 267 258 269 276 276 278 286 291 295 294 286 253 186 155 101 41 135 228 233 279 314 315 306 210 167 233 141 120 186 238 205 172 199 205 190 183 181 185 199 196 191 222 219 228
279 276 278 272 265 268 265 270 275 282 285 289 301 246 218 177 157 123 111 212 222 213 321 331 312 11 356 350 343 141 170 189 230 218 198 179 228 187 206 183 160 175 198 214 229 90 308
274 272 271 273 269 259 259 261 268 275 279 285 263 233 214 163 151 128 170 209 252 337 25 339 344 15 0 349 14 359 109 358 330 239 201 197 204 178 192 166 196 190 158 161 206 230 242
273 273 273 273 272 265 252 257 265 268 273 274 259 243 168 152 145 179 206 189 248 279 326 330 347 334 347 349 339 352 3 31 4 332 173 170 90 227 143 183 185 184 212 169 192 199 251
275 269 267 267 267 265 257 253 255 257 260 266 247 246 165 146 202 186 181 177 243 281 287 260 267 268 305 328 348 11 24 61 1 11 46 360 129 237 247 227 111 169 218 223 226 206 244
270 268 265 262 262 259 251 246 247 245 238 264 226 285 199 178 212 207 137 170 225 247 213 234 231 350 337 333 317 26 334 311 23 15 1 345 25 152 346 356 27 69 289 227 195 217 247
262 261 261 260 258 255 249 244 238 236 234 221 163 220 222 230 179 215 169 191 199 227 240 226 227 267 139 291 296 305 328 318 4 335 307 232 60 29 186 55 348 307 319 309 278 253 257
258 254 253 252 248 247 243 240 233 230 226 211 175 225 182 210 207 199 202 189 199 215 213 201 218 213 183 258 305 271 268 310 326 352 344 296 208 170 265 292 280 266 282 301 279 258 249
260 255 249 246 242 238 235 231 228 219 221 222 191 187 196 227 248 192 194 198 196 204 188 203 227 187 202 217 231 274 309 29 294 351 4 354 281 185 226 225 247 266 280 288 265 260 265
264 257 251 245 239 235 232 227 220 217 203 213 203 185 264 184 207 196 190 184 203 182 225 232 217 223 238 241 247 255 253 264 255 285 310 307 329 159 226 227 242 269 243 221 232 227 234
264 253 249 244 239 234 229 225 217 212 205 208 159 168 209 240 200 204 190 198 200 203 212 213 219 211 155 27 352 295 260 251 240 240 212 251 334 308 209 285 234 259 250 214 238 262 243
267 258 251 246 242 235 226 220 217 211 207 205 204 203 197 234 228 211 193 188 199 197 213 222 210 214 105 267 269 272 248 263 226 223 211 204 197 254 226 217 306 292 263 217 205 291 20
268 260 250 242 239 233 227 217 215 211 209 206 211 191 217 198 214 204 199 187 190 190 209 225 113 165 68 178 178 248 241 262 244 236 193 180 190 194 200 204 236 251 123 19 54 261 7
265 261 257 245 231 225 222 214 211 213 210 201 187 196 217 225 213 189 189 187 176 175 200 150 180 198 168 183 213 211 227 256 254 222 162 170 175 214 230 261 276 258 292 335 190 322 303
268 264 255 247 229 215 214 206 209 206 199 195 197 187 193 170 238 204 175 160 164 176 173 152 116 178 171 189 209 188 188 232 243 204 178 175 194 186 209 240 267 113 135 346 335 280 270
278 265 256 253 227 201 203 197 210 200 198 190 194 177 177 192 329 296 255 183 183 175 168 170 185 151 171 159 195 189 201 198 207 235 119 193 202 190 198 205 312 16 17 302 283 289 306